Ely, MN

11:07 AM CDT on July 23, 2017 (GMT -0500)
Ely Municipal

Weather History for KELO - November, 2012

Change the Weather History Date:

Friday, November 9, 2012

  Actual Average Record
Temperature  
Mean Temperature 32 °F -  
Max Temperature 37 °F 36 °F 64 °F (1999)
Min Temperature 28 °F 22 °F 3 °F (1998)
Degree Days  
Heating Degree Days 32    
Moisture  
Dew Point 26 °F    
Average Humidity 80    
Maximum Humidity 93    
Minimum Humidity 60    
Precipitation  
Precipitation 0.00 in - - ()
Sea Level Pressure  
Sea Level Pressure 30.13 in    
Wind  
Wind Speed 5 mph (NE)    
Max Wind Speed 12 mph    
Max Gust Speed -    
Visibility 10 miles    
Events Snow    
Averages and records for this station are not official NWS values.
T = Trace of Precipitation, MM = Missing Value Source: NWS Daily Summary

Daily Weather History Graph

Daily Weather History Graph

Search for Another Location

Airport or City:

Trip Planner

Search our weather history database for the weather conditions in past years. The results will help you decide how hot, cold, wet, or windy it might be!

Date:

Astronomy

Nov. 09, 2012 Rise Set
Actual Time 7:04 AM CST 4:36 PM CST
Civil Twilight 6:31 AM CST 5:10 PM CST
Nautical Twilight 5:54 AM CST 5:47 PM CST
Astronomical Twilight 5:18 AM CST 6:23 PM CST
Moon 1:44 AM CST (11/9) 2:07 PM CST (11/9)
Length of Visible Light 10h 38m
Length of Day
9h 32m
Waning Crescent, 23% of the Moon is Illuminated
Nov 9
Waning Crescent
Nov 13
New
Nov 20
First Quarter
Nov 28
Full
Dec 6
Last Quarter

Hourly Weather History & Observations

Time (CST) Temp. Windchill Dew Point Humidity Pressure Visibility Wind Dir Wind Speed Gust Speed Precip Events Conditions
12:13 AM 35.6 °F - 28.4 °F 75% 30.08 in 10.0 mi Calm Calm - N/A   Overcast
12:33 AM 33.8 °F 30.8 °F 28.4 °F 81% 30.08 in 10.0 mi North 3.5 mph - N/A   Overcast
12:52 AM 33.8 °F 29.6 °F 30.2 °F 87% 30.08 in 10.0 mi North 4.6 mph - N/A   Overcast
1:13 AM 33.8 °F 29.6 °F 30.2 °F 87% 30.09 in 5.0 mi North 4.6 mph - N/A Snow Light Snow
1:33 AM 33.8 °F 30.8 °F 30.2 °F 87% 30.09 in 10.0 mi North 3.5 mph - N/A   Overcast
1:52 AM 33.8 °F 30.8 °F 30.2 °F 87% 30.10 in 10.0 mi North 3.5 mph - N/A   Overcast
2:13 AM 33.8 °F - 28.4 °F 81% 30.10 in 10.0 mi Calm Calm - N/A   Overcast
2:33 AM 33.8 °F - 28.4 °F 81% 30.11 in 10.0 mi Calm Calm - N/A   Overcast
2:52 AM 32.0 °F 28.7 °F 28.4 °F 87% 30.11 in 10.0 mi North 3.5 mph - N/A   Overcast
3:13 AM 32.0 °F 28.7 °F 28.4 °F 87% 30.12 in 10.0 mi North 3.5 mph - N/A   Overcast
3:33 AM 32.0 °F 27.5 °F 28.4 °F 87% 30.12 in 10.0 mi North 4.6 mph - N/A   Overcast
3:52 AM 32.0 °F 28.7 °F 28.4 °F 87% 30.12 in 10.0 mi North 3.5 mph - N/A   Overcast
4:13 AM 32.0 °F 28.7 °F 28.4 °F 87% 30.12 in 10.0 mi North 3.5 mph - N/A   Overcast
4:33 AM 32.0 °F 28.7 °F 28.4 °F 87% 30.13 in 10.0 mi North 3.5 mph - N/A   Overcast
4:52 AM 32.0 °F 27.5 °F 28.4 °F 87% 30.14 in 10.0 mi North 4.6 mph - N/A   Overcast
5:13 AM 32.0 °F 28.7 °F 28.4 °F 87% 30.14 in 10.0 mi North 3.5 mph - N/A   Overcast
5:33 AM 30.2 °F - 28.4 °F 93% 30.14 in 10.0 mi Calm Calm - N/A   Mostly Cloudy
5:52 AM 30.2 °F 25.4 °F 28.4 °F 93% 30.14 in 10.0 mi NNE 4.6 mph - N/A   Overcast
6:13 AM 30.2 °F - 28.4 °F 93% 30.14 in 10.0 mi Calm Calm - N/A   Overcast
6:33 AM 30.2 °F 24.3 °F 28.4 °F 93% 30.15 in 10.0 mi NNE 5.8 mph - N/A   Overcast
6:52 AM 30.2 °F 23.4 °F 28.4 °F 93% 30.13 in 10.0 mi NE 6.9 mph - N/A   Overcast
7:13 AM 30.2 °F 26.7 °F 28.4 °F 93% 30.15 in 10.0 mi NE 3.5 mph - N/A   Mostly Cloudy
7:33 AM 30.2 °F 25.4 °F 28.4 °F 93% 30.15 in 10.0 mi NE 4.6 mph - N/A   Mostly Cloudy
7:52 AM 30.2 °F 24.3 °F 26.6 °F 86% 30.15 in 10.0 mi NE 5.8 mph - N/A   Mostly Cloudy
8:13 AM 30.2 °F 22.6 °F 26.6 °F 86% 30.16 in 10.0 mi NE 8.1 mph - N/A   Mostly Cloudy
8:33 AM 30.2 °F 22.6 °F 26.6 °F 86% 30.15 in 10.0 mi NE 8.1 mph - N/A   Overcast
8:53 AM 30.2 °F 22.6 °F 26.6 °F 86% 30.15 in 10.0 mi ENE 8.1 mph - N/A   Overcast
9:13 AM 30.2 °F 22.6 °F 26.6 °F 86% 30.14 in 10.0 mi ENE 8.1 mph - N/A   Scattered Clouds
9:32 AM 30.2 °F 23.4 °F 26.6 °F 86% 30.15 in 10.0 mi ENE 6.9 mph - N/A   Mostly Cloudy
9:53 AM 32.0 °F 26.4 °F 26.6 °F 80% 30.16 in 10.0 mi NE 5.8 mph - N/A   Overcast
10:13 AM 32.0 °F 27.5 °F 26.6 °F 80% 30.17 in 10.0 mi North 4.6 mph - N/A   Overcast
10:32 AM 33.8 °F 28.6 °F 26.6 °F 75% 30.16 in 10.0 mi NE 5.8 mph - N/A   Overcast
10:53 AM 33.8 °F 27.0 °F 26.6 °F 75% 30.16 in 10.0 mi East 8.1 mph - N/A   Mostly Cloudy
11:13 AM 33.8 °F 29.6 °F 26.6 °F 75% 30.16 in 10.0 mi NE 4.6 mph - N/A   Scattered Clouds
11:32 AM 35.6 °F 31.7 °F 24.8 °F 65% 30.16 in 10.0 mi NNE 4.6 mph - N/A   Scattered Clouds
11:53 AM 35.6 °F 29.9 °F 26.6 °F 70% 30.16 in 10.0 mi NNE 6.9 mph - N/A   Mostly Cloudy
12:13 PM 35.6 °F 32.8 °F 26.6 °F 70% 30.16 in 10.0 mi NNE 3.5 mph - N/A   Mostly Cloudy
12:32 PM 35.6 °F 28.6 °F 24.8 °F 65% 30.15 in 10.0 mi NNE 9.2 mph - N/A   Scattered Clouds
12:53 PM 35.6 °F 30.7 °F 24.8 °F 65% 30.14 in 10.0 mi North 5.8 mph - N/A   Clear
1:13 PM 35.6 °F 30.7 °F 24.8 °F 65% 30.14 in 10.0 mi NNE 5.8 mph - N/A   Clear
1:32 PM 35.6 °F 31.7 °F 24.8 °F 65% 30.14 in 10.0 mi North 4.6 mph - N/A   Clear
1:53 PM 37.4 °F 32.1 °F 24.8 °F 60% 30.13 in 10.0 mi NE 6.9 mph - N/A   Clear
2:13 PM 35.6 °F 30.7 °F 24.8 °F 65% 30.13 in 10.0 mi ENE 5.8 mph - N/A   Scattered Clouds
2:32 PM 35.6 °F 28.6 °F 24.8 °F 65% 30.12 in 10.0 mi ENE 9.2 mph - N/A   Mostly Cloudy
2:53 PM 35.6 °F 29.2 °F 24.8 °F 65% 30.12 in 10.0 mi East 8.1 mph - N/A   Overcast
3:13 PM 35.6 °F 31.7 °F 24.8 °F 65% 30.13 in 10.0 mi NNE 4.6 mph - N/A   Overcast
3:32 PM 35.6 °F 30.7 °F 26.6 °F 70% 30.13 in 10.0 mi ENE 5.8 mph - N/A   Overcast
3:53 PM 33.8 °F 27.7 °F 24.8 °F 70% 30.13 in 10.0 mi ENE 6.9 mph - N/A   Overcast
4:13 PM 33.8 °F 26.4 °F 24.8 °F 70% 30.13 in 10.0 mi NE 9.2 mph - N/A   Overcast
4:32 PM 33.8 °F 27.0 °F 24.8 °F 70% 30.13 in 10.0 mi NE 8.1 mph - N/A   Scattered Clouds
4:53 PM 32.0 °F 24.2 °F 24.8 °F 75% 30.13 in 10.0 mi NE 9.2 mph - N/A   Scattered Clouds
5:12 PM 32.0 °F 26.4 °F 24.8 °F 75% 30.13 in 10.0 mi ENE 5.8 mph - N/A   Overcast
5:33 PM 32.0 °F 26.4 °F 24.8 °F 75% 30.13 in 10.0 mi ENE 5.8 mph - N/A   Overcast
5:53 PM 30.2 °F 21.9 °F 24.8 °F 80% 30.14 in 10.0 mi NE 9.2 mph - N/A   Overcast
6:12 PM 30.2 °F 24.3 °F 24.8 °F 80% 30.15 in 10.0 mi NE 5.8 mph - N/A   Overcast
6:33 PM 30.2 °F 22.6 °F 24.8 °F 80% 30.15 in 10.0 mi ENE 8.1 mph - N/A   Overcast
6:53 PM 30.2 °F 23.4 °F 24.8 °F 80% 30.14 in 10.0 mi NE 6.9 mph - N/A   Overcast
7:12 PM 30.2 °F 22.6 °F 24.8 °F 80% 30.15 in 10.0 mi ENE 8.1 mph - N/A   Overcast
7:33 PM 30.2 °F 23.4 °F 24.8 °F 80% 30.15 in 10.0 mi NE 6.9 mph - N/A   Overcast
7:53 PM 30.2 °F 22.6 °F 24.8 °F 80% 30.15 in 10.0 mi NE 8.1 mph - N/A   Overcast
8:12 PM 30.2 °F 24.3 °F 24.8 °F 80% 30.15 in 10.0 mi ENE 5.8 mph - N/A   Overcast
8:33 PM 30.2 °F 24.3 °F 24.8 °F 80% 30.14 in 10.0 mi ENE 5.8 mph - N/A   Overcast
8:53 PM 28.4 °F 22.2 °F 24.8 °F 86% 30.14 in 10.0 mi ENE 5.8 mph - N/A   Overcast
9:12 PM 28.4 °F 21.2 °F 24.8 °F 86% 30.14 in 10.0 mi East 6.9 mph - N/A   Overcast
9:32 PM 28.4 °F 22.2 °F 24.8 °F 86% 30.14 in 10.0 mi ENE 5.8 mph - N/A   Overcast
9:53 PM 28.4 °F 21.2 °F 24.8 °F 86% 30.14 in 10.0 mi East 6.9 mph - N/A   Overcast
10:13 PM 28.4 °F 18.5 °F 24.8 °F 86% 30.14 in 10.0 mi East 11.5 mph - N/A   Overcast
10:32 PM 28.4 °F 20.4 °F 24.8 °F 86% 30.14 in 10.0 mi East 8.1 mph - N/A   Overcast
10:53 PM 28.4 °F 20.4 °F 24.8 °F 86% 30.14 in 10.0 mi East 8.1 mph - N/A   Overcast
11:13 PM 28.4 °F 21.2 °F 24.8 °F 86% 30.13 in 10.0 mi East 6.9 mph - N/A   Overcast
11:32 PM 28.4 °F 21.2 °F 24.8 °F 86% 30.13 in 10.0 mi East 6.9 mph - N/A   Overcast
11:53 PM 30.2 °F 22.6 °F 24.8 °F 80% 30.13 in 10.0 mi East 8.1 mph - N/A   Overcast